EHI
0 0 0 0 0 0 0 0 0 0 0 0 0 0 0 0 0 0 1 3 5 5 4 5 5 3 2 1 1 0 0 1 1 1 0 0 0 0 0 0 0 0 0
0 0 0 0 0 0 0 0 0 0 0 0 0 0 0 0 0 0 0 2 4 6 6 6 5 4 3 3 2 1 1 0 0 0 0 0 0 0 0 0 0 0 0
0 0 0 0 0 0 0 0 0 0 0 0 0 0 0 0 0 0 0 1 2 5 7 8 7 6 5 4 4 3 2 1 0 0 0 0 0 0 0 0 0 0 0
0 0 0 0 0 0 0 0 0 0 0 0 0 0 0 0 0 0 0 1 1 2 4 7 9 9 8 7 6 5 5 4 2 1 0 0 0 0 0 0 0 0 0
0 0 0 0 0 0 0 0 0 0 0 0 0 0 0 0 0 0 0 0 0 0 1 4 7 10 10 10 9 8 8 7 4 3 2 0 0 0 0 0 0 0 0
1 1 1 1 1 1 0 0 0 0 0 0 0 0 0 0 0 0 0 0 0 0 0 1 4 7 10 10 11 10 10 9 8 6 4 2 1 0 0 0 0 0 0
2 2 3 5 4 2 1 0 0 0 0 0 0 0 0 0 0 0 0 0 0 0 0 0 1 3 5 7 9 10 12 12 11 9 7 5 4 2 0 0 0 0 0
4 4 5 7 6 4 2 1 1 1 1 1 0 0 0 0 0 0 0 0 0 0 0 0 0 1 2 3 6 8 11 12 12 10 9 7 5 3 1 0 0 0 0
7 7 8 7 5 5 5 4 3 3 2 2 1 0 0 0 0 0 0 0 0 0 0 0 0 0 0 1 3 5 7 9 10 9 9 7 5 3 1 0 0 0 0
11 11 10 7 4 4 5 6 5 4 3 3 2 1 0 0 0 0 0 0 0 0 0 0 0 0 0 1 2 3 4 5 6 6 6 6 4 2 1 0 0 0 1
12 12 10 7 5 4 5 6 6 4 3 2 2 1 0 0 0 0 0 0 0 0 0 0 0 0 0 0 1 1 2 2 2 2 3 3 3 3 1 1 0 1 2
9 10 10 8 6 6 6 6 6 4 2 1 1 0 0 0 0 0 0 0 0 0 0 0 0 0 0 0 0 0 0 0 0 0 1 1 2 3 3 3 2 2 3
7 8 9 9 8 7 6 6 5 4 1 0 0 0 0 0 0 0 0 0 0 0 0 0 0 0 0 0 0 0 0 0 0 0 0 0 1 2 4 4 4 3 3
7 8 9 10 10 8 6 5 4 3 2 1 0 0 0 0 0 0 0 0 0 0 0 0 0 0 0 0 0 0 0 0 0 0 0 0 0 1 2 3 3 2 1
7 8 10 11 11 9 6 3 1 1 2 1 0 0 0 0 0 0 0 1 1 1 0 0 0 0 0 0 0 0 0 0 0 0 0 0 0 0 0 1 1 0 0
9 10 11 12 11 10 6 2 0 0 1 1 0 0 0 0 0 0 0 1 2 2 1 1 1 0 0 0 0 0 0 0 0 0 0 0 0 0 0 0 0 0 0
12 12 12 12 11 9 5 1 0 0 0 0 0 0 0 0 0 1 1 2 3 3 3 2 2 1 1 0 0 0 0 0 0 0 0 0 0 0 0 0 0 0 0
12 12 11 10 9 7 4 1 0 0 0 0 0 0 1 0 0 1 2 3 3 3 3 3 3 3 2 1 1 1 1 1 1 1 0 0 0 0 0 0 0 0 0
11 11 10 9 7 6 3 1 1 0 0 0 0 1 1 1 1 2 3 3 3 3 3 3 3 3 3 3 2 2 2 2 2 2 1 1 0 0 0 0 0 0 0
11 11 10 9 7 5 4 3 1 0 0 0 0 1 2 3 3 3 4 4 3 3 3 3 3 3 3 3 3 3 3 3 3 3 3 2 1 0 0 0 0 0 0
13 13 12 9 7 6 4 3 1 0 0 0 0 1 2 3 4 5 6 5 4 4 3 3 3 3 3 3 3 3 3 3 3 3 3 2 1 0 0 0 0 0 0
15 15 13 11 8 6 3 1 0 1 1 1 1 1 1 2 3 5 6 5 4 4 4 4 3 3 3 3 3 3 3 3 3 2 1 1 0 0 0 0 0 0 0
16 16 14 13 10 6 3 1 0 1 2 2 2 1 1 2 3 4 5 4 3 3 4 4 4 3 3 2 2 2 2 2 2 1 0 0 0 0 0 0 0 0 0
16 16 14 13 10 7 3 1 0 1 2 3 3 2 1 3 5 4 3 4 3 3 3 3 3 2 1 1 1 1 1 1 1 0 0 0 0 0 0 0 0 0 0
17 16 14 11 9 6 4 3 1 0 1 2 2 2 1 3 4 3 2 4 4 3 2 1 1 1 0 0 0 0 0 0 0 0 0 0 0 0 0 0 0 0 0
18 17 14 10 8 6 6 4 1 0 0 1 2 1 1 2 2 1 1 4 4 3 2 2 1 0 0 0 0 0 0 0 0 0 0 0 0 0 0 0 0 0 0
Wind_Speed
3 3 2 2 2 2 2 2 2 2 2 2 2 3 3 4 5 4 4 12 12 11 12 12 11 10 10 10 10 11 11 11 10 10 10 10 9 9 9 9 9 9 8
4 3 3 3 2 3 3 2 2 2 2 2 1 2 2 3 4 4 3 6 10 10 10 11 11 11 11 10 10 10 10 11 10 10 10 10 10 10 10 10 9 9 9
4 4 3 3 3 2 2 2 1 1 1 1 1 1 2 2 3 4 3 3 4 7 10 10 10 10 10 10 10 10 10 10 10 10 10 10 10 10 10 10 10 9 9
4 3 3 3 3 2 2 2 2 2 1 1 1 1 1 1 3 3 3 3 3 3 6 9 9 9 9 9 10 10 9 9 8 8 8 9 9 10 10 10 10 10 9
4 4 3 2 3 2 2 3 2 2 2 1 1 1 1 1 1 3 3 4 4 4 3 5 8 8 9 9 9 9 9 9 8 8 8 8 8 8 8 9 8 9 9
4 4 3 3 3 2 2 2 3 2 2 2 2 1 0 1 1 1 3 3 4 5 4 4 3 5 7 8 8 8 8 8 8 8 8 8 7 8 8 8 8 8 8
4 4 3 3 3 3 3 3 3 3 2 2 2 1 1 0 1 2 2 2 3 4 4 4 3 2 3 5 7 7 8 8 8 8 8 8 7 7 6 6 7 7 7
4 4 4 3 3 2 2 3 3 2 2 2 3 2 1 2 1 2 2 2 3 3 4 5 4 4 3 2 4 8 9 9 9 9 8 8 8 7 7 7 7 7 7
4 4 4 4 3 3 3 3 3 4 3 2 2 4 3 3 1 2 2 2 2 2 3 3 5 5 5 4 4 7 10 9 10 10 9 9 8 8 7 7 7 7 7
4 4 4 4 3 3 3 3 4 3 3 3 2 2 3 4 3 1 2 1 2 3 3 4 4 4 4 4 5 7 9 10 10 10 10 9 9 8 8 8 9 8 8
3 4 4 3 3 3 3 3 3 3 3 4 3 2 2 1 2 2 2 2 1 2 3 4 3 4 4 4 4 6 8 9 9 10 9 9 9 9 9 9 10 9 9
2 3 3 3 3 3 3 3 3 4 3 3 3 3 3 3 3 3 3 2 2 2 2 3 4 4 4 4 6 8 9 9 9 9 9 9 9 9 9 9 9 9 9
2 4 4 3 3 4 3 3 3 3 3 3 4 3 3 3 3 3 3 2 2 2 1 2 3 4 4 3 4 8 8 9 9 9 9 9 8 8 8 8 8 8 7
4 4 4 3 4 4 4 3 3 3 3 3 4 4 3 3 3 4 4 3 2 1 1 3 2 3 3 4 5 8 5 8 8 9 9 8 7 7 7 7 6 6 5
3 3 3 3 3 3 3 3 2 3 3 3 3 3 3 3 3 3 3 4 4 3 3 3 2 3 3 4 5 4 4 7 8 8 8 8 7 7 7 7 6 5 5
3 3 3 3 3 3 2 2 2 2 2 2 2 2 3 3 2 3 3 3 4 4 3 3 3 3 3 4 6 5 5 7 8 8 8 8 8 7 7 6 6 5 5
4 4 4 3 3 3 3 2 2 2 2 2 2 3 3 3 2 2 3 3 3 3 4 3 2 2 3 3 3 3 3 3 4 7 8 8 7 7 6 6 5 5 5
4 4 3 3 3 3 3 3 3 3 3 3 3 3 3 3 3 3 3 3 3 3 4 4 2 2 4 4 4 4 3 3 3 5 7 7 7 7 6 6 6 5 5
4 4 3 3 3 3 3 3 3 3 4 4 4 4 4 3 3 3 3 3 3 3 3 3 3 2 2 2 2 2 2 2 3 4 6 7 7 7 6 6 6 6 6
4 4 3 3 3 3 3 3 3 3 3 4 4 4 4 4 5 4 4 4 3 3 2 2 2 2 2 2 2 2 2 2 2 2 3 4 5 6 7 6 6 6 6
5 4 3 3 2 2 2 2 2 3 3 3 3 3 4 5 5 5 4 3 3 3 2 2 2 2 2 2 3 3 3 2 2 2 2 2 3 3 4 6 7 7 7
3 3 3 3 3 3 3 3 2 2 2 3 3 3 3 4 5 6 6 6 6 5 5 4 3 3 4 3 3 3 3 2 3 2 3 3 3 4 4 3 6 7 8
3 3 4 4 4 4 4 3 3 3 3 3 3 3 3 3 3 3 3 4 5 7 8 6 5 6 5 5 4 3 4 4 4 3 3 3 3 4 4 4 7 8 8
4 4 4 4 4 4 4 4 4 3 3 3 3 3 3 3 3 3 3 3 3 4 6 5 6 5 5 4 5 5 5 4 2 2 4 3 3 4 4 4 7 9 9
3 3 4 4 4 4 4 4 3 2 2 3 2 2 3 4 5 4 3 3 3 3 3 4 5 4 5 5 4 3 2 2 3 3 3 3 3 2 2 3 5 9 9
4 3 4 4 4 4 4 4 4 2 2 2 2 2 3 4 4 4 4 4 4 4 2 1 1 2 3 4 5 5 5 4 2 3 3 4 3 3 2 2 3 4 5
Wind_Direction
159 167 172 172 175 168 172 184 186 193 202 196 185 165 161 162 163 163 176 183 183 184 185 187 187 190 193 195 196 197 196 196 197 198 198 199 201 202 202 204 205 205 206
159 161 168 171 177 178 178 178 184 195 184 164 153 144 141 146 162 159 167 181 185 183 186 190 191 191 194 198 200 201 202 202 203 202 204 206 208 210 211 212 213 212 210
158 159 159 168 181 176 171 159 176 153 146 130 133 143 127 140 148 154 162 169 181 189 190 192 194 197 201 204 204 204 205 207 206 209 211 210 210 212 214 214 215 215 213
163 154 157 172 177 159 156 151 146 134 122 123 133 142 132 136 157 165 165 171 176 183 192 193 195 200 205 208 208 206 205 203 203 207 209 211 213 215 216 216 220 220 219
166 155 162 170 157 149 155 160 143 144 144 146 146 135 139 155 183 175 175 180 183 186 189 196 200 205 210 210 205 204 204 204 207 208 210 213 216 215 215 216 220 221 220
168 155 161 169 155 145 148 142 140 141 155 167 147 110 151 203 176 183 193 189 190 191 191 196 197 209 210 209 205 204 204 204 206 208 211 214 217 218 218 220 221 221 223
170 163 165 166 164 163 165 156 142 142 161 140 105 56 357 310 217 219 203 192 196 196 190 191 188 190 204 205 208 208 209 210 209 212 213 213 215 215 214 217 218 220 221
176 176 171 175 174 167 163 161 154 153 176 155 141 125 359 342 315 232 211 201 203 192 193 193 190 191 196 201 209 212 215 218 217 216 216 215 215 214 213 215 215 218 220
182 181 176 175 178 172 179 186 177 169 185 206 173 156 165 211 277 308 244 219 206 197 201 196 199 201 200 202 212 219 217 218 219 219 218 216 215 215 216 219 221 221 223
181 181 177 176 179 179 186 200 189 179 172 202 228 210 184 166 166 256 306 263 225 212 209 209 206 205 204 205 208 208 214 217 219 220 219 217 215 213 215 219 223 223 224
180 176 171 169 174 182 196 201 189 184 183 190 199 195 191 185 172 173 240 275 284 245 218 212 207 204 202 202 208 210 211 216 219 218 217 217 218 218 220 223 227 228 228
187 190 182 178 182 189 199 202 196 190 199 200 202 192 178 181 191 183 206 230 248 259 237 221 213 208 205 205 212 209 208 210 214 215 216 219 222 223 225 227 230 231 231
193 207 200 194 196 203 206 200 196 202 203 204 209 209 204 206 186 174 181 209 231 261 256 245 224 208 206 200 210 210 211 208 210 214 214 217 220 223 225 226 224 224 225
201 202 200 202 204 204 210 202 205 214 209 214 224 217 213 218 198 186 181 175 200 269 256 249 243 215 209 203 214 209 212 205 207 212 214 212 213 215 218 220 221 219 217
203 197 197 200 205 206 208 194 207 222 217 219 225 222 224 227 211 208 193 180 176 204 243 240 232 225 207 203 207 201 208 208 206 207 210 210 210 215 217 213 212 210 207
203 185 191 195 199 200 198 192 210 226 216 229 222 223 236 238 226 212 202 197 185 184 217 231 222 219 204 203 198 196 205 204 207 209 211 210 210 213 210 207 203 197 196
193 190 191 189 190 197 199 197 219 227 227 240 242 233 241 237 230 223 206 197 196 181 208 244 226 205 190 199 199 202 207 203 210 211 209 207 204 203 199 201 199 197 196
193 192 186 189 200 204 201 199 219 228 229 242 247 244 247 242 237 223 204 206 207 196 190 222 232 204 209 204 191 194 200 202 207 206 200 198 201 203 201 200 199 196 194
192 191 188 195 205 205 205 210 213 222 226 233 237 235 242 233 239 232 216 212 211 207 189 195 225 214 215 190 168 191 191 201 207 199 193 197 200 201 202 202 201 200 198
190 193 197 203 204 203 208 215 217 225 238 241 239 233 233 225 227 226 224 217 206 199 194 195 213 215 209 197 165 179 203 217 220 204 198 193 197 200 204 204 206 204 201
196 197 194 207 211 207 219 220 224 232 243 256 254 244 240 231 224 217 215 205 192 193 189 199 213 212 213 189 201 193 199 208 234 205 191 206 201 212 214 217 215 211 204
195 190 196 199 210 227 231 219 215 228 234 242 256 259 259 247 236 222 219 212 197 196 202 206 217 217 224 212 203 193 180 183 239 213 181 219 196 214 219 216 218 209 207
197 200 207 201 214 229 224 223 224 218 228 239 248 255 264 264 231 220 227 228 227 222 209 202 212 221 218 210 194 202 200 198 216 203 173 215 201 215 221 220 210 208 206
203 207 213 208 214 231 227 226 226 221 229 238 239 237 235 244 232 215 213 225 240 241 225 216 214 221 219 207 198 204 207 209 233 215 174 199 199 210 216 214 212 208 207
212 219 218 212 212 237 239 228 208 217 240 252 248 247 242 238 242 214 198 218 242 260 254 230 219 217 215 209 192 165 171 176 227 233 196 187 198 195 207 222 219 211 210
214 219 227 216 209 223 233 217 196 193 227 251 264 259 252 245 237 205 197 205 232 248 242 268 254 244 231 221 203 193 190 192 202 225 208 187 192 170 213 228 211 206 210